Location: Adaghas
(31.2259°N, 9.0496°W)
Time: 03:40:45
(UTC+00:00)

CZ-2C R/B - Pass Details

Date: 18 September 2020
Orbit: 704 x 907 km, 98.1° (Epoch: 23 October)

Event Time Altitude Azimuth Distance (km) Brightness Sun altitude
Rises 19:32:55 0° 163° (SSE) 3,182 5.9 -12.6°
Reaches altitude 10° 19:35:08 10° 162° (SSE) 2,287 5.2 -13.1°
Maximum altitude 19:40:11 79° 76° (ENE) 810 3.0 -14.1°
Drops below altitude 10° 19:45:34 10° 351° (N) 2,433 5.9 -15.3°
Sets 19:47:59 0° 350° (N) 3,401 6.6 -15.8°
